Location: Gu�tanj
(46.5431°N, 14.9692°E)
Time: 15:23:39
(UTC+00:00)

SME Rocket - Pass Details

Date: 03 March 2021
Orbit: 550 x 2652 km, 99.9° (Epoch: 14 April)

Event Time Altitude Azimuth Distance (km) Brightness Sun altitude
Rises 19:06:12 0° 14° (NNE) 5,056 7.7 -24.1°
Reaches altitude 10° 19:09:45 10° 14° (NNE) 3,747 7.1 -24.7°
Maximum altitude 19:18:07 77° 291° (WNW) 1,118 4.3 -26.1°
Drops below altitude 10° 19:23:28 10° 205° (SSW) 2,437 6.1 -27.0°
Sets 19:25:23 0° 204° (SSW) 3,201 6.8 -27.3°
